TimeEST,TemperatureF,Dew PointF,Humidity,Sea Level PressureIn,VisibilityMPH,Wind Direction,Wind SpeedMPH,Gust SpeedMPH,PrecipitationIn,Events,Conditions,WindDirDegrees,DateUTC
12:10 AM,24.8,15.8,69,30.11,8.0,SW,6.9,-,N/A,,Scattered Clouds,230,2012-11-25 05:10:00
12:56 AM,25.2,17.1,71,30.13,8.0,SSW,4.6,-,N/A,,Clear,200,2012-11-25 05:56:00
1:56 AM,26.1,17.1,69,30.09,8.0,South,5.8,-,N/A,,Overcast,190,2012-11-25 06:56:00
2:56 AM,26.1,17.1,69,30.11,8.0,SSW,5.8,-,N/A,,Partly Cloudy,210,2012-11-25 07:56:00
3:56 AM,25.2,17.1,71,30.09,7.0,SSW,6.9,-,N/A,,Clear,210,2012-11-25 08:56:00
4:56 AM,26.1,17.1,69,30.08,7.0,SW,9.2,-,N/A,,Mostly Cloudy,220,2012-11-25 09:56:00
5:56 AM,26.1,18.1,72,30.06,7.0,SSW,9.2,-,N/A,,Overcast,210,2012-11-25 10:56:00
6:56 AM,27.1,18.1,69,30.04,7.0,SSW,10.4,-,N/A,,Scattered Clouds,200,2012-11-25 11:56:00
7:56 AM,28.0,18.1,66,30.01,6.0,SSW,12.7,-,N/A,,Haze,200,2012-11-25 12:56:00
8:56 AM,29.1,19.0,66,30.00,6.0,SSW,15.0,-,N/A,,Haze,210,2012-11-25 13:56:00
9:56 AM,30.0,19.0,64,30.00,6.0,SW,15.0,-,N/A,,Haze,230,2012-11-25 14:56:00
10:56 AM,34.9,20.1,55,29.99,7.0,SW,13.8,-,N/A,,Clear,220,2012-11-25 15:56:00
11:56 AM,36.9,20.1,51,29.95,6.0,WSW,16.1,-,N/A,,Haze,240,2012-11-25 16:56:00
12:56 PM,39.9,21.0,47,29.93,7.0,WSW,15.0,-,N/A,,Clear,250,2012-11-25 17:56:00
1:56 PM,39.9,22.1,49,29.92,7.0,WSW,11.5,-,N/A,,Clear,240,2012-11-25 18:56:00
2:56 PM,41.9,22.1,45,29.92,7.0,WSW,12.7,-,N/A,,Clear,240,2012-11-25 19:56:00
3:56 PM,41.9,22.1,45,29.93,7.0,WSW,9.2,-,N/A,,Clear,240,2012-11-25 20:56:00
4:56 PM,37.9,23.0,55,29.95,7.0,West,6.9,-,N/A,,Clear,260,2012-11-25 21:56:00
5:56 PM,36.9,22.1,55,29.96,8.0,SW,4.6,-,N/A,,Clear,230,2012-11-25 22:56:00
6:56 PM,34.9,22.1,60,29.99,8.0,SSW,4.6,-,N/A,,Clear,210,2012-11-25 23:56:00
7:56 PM,32.9,23.0,67,30.01,8.0,WSW,5.8,-,N/A,,Clear,240,2012-11-26 00:56:00
8:56 PM,34.9,25.2,68,30.02,8.0,WSW,5.8,-,N/A,,Clear,240,2012-11-26 01:56:00
9:56 PM,36.0,25.2,65,30.03,8.0,West,6.9,-,N/A,,Clear,260,2012-11-26 02:56:00
10:56 PM,36.0,25.2,65,30.03,8.0,WSW,5.8,-,N/A,,Clear,250,2012-11-26 03:56:00
11:56 PM,36.0,26.1,67,30.05,7.0,West,5.8,-,N/A,,Scattered Clouds,270,2012-11-26 04:56:00